This demonstration page uses our WeatherBlox Daily Observations layout. Learn more.

Left ArrowRight Arrow

44.8408, -93.29828

Hourly Observations for May 8, 2016

Temp ( °F °C ) Dew Point ( °F °C ) Humidity (%) Winds ( mph kmh ) Pressure ( in mb ) Visibility ( mi km ) Precip ( " mm )
12:53 am 00:53 Clear 52 11.1 30 -1.1 43 43 Calm 29.91 1013 10 16 0.00 0.00
1:53 am 01:53 Clear 52 11.1 32 0 47 47 SW 3 6 29.91 1013 10 16 0.00 0.00
2:53 am 02:53 Clear 52 11.1 32 0 47 47 WSW 3 6 29.91 1013 10 16 0.00 0.00
3:53 am 03:53 Clear 52 11.1 32 0 47 47 SSW 3 6 29.91 1013 10 16 0.00 0.00
4:53 am 04:53 Partly Cloudy 49 9.4 34 1.1 56 56 SSW 3 6 29.90 1013 10 16 0.00 0.00
5:53 am 05:53 Partly Cloudy 48 8.9 35 1.7 61 61 SW 5 7 29.90 1013 10 16 0.00 0.00
6:53 am 06:53 Mostly Cloudy 48 8.9 35 1.7 61 61 SW 5 7 29.92 1013 10 16 0.00 0.00
7:53 am 07:53 Mostly Cloudy 55 12.8 33 0.6 44 44 WNW 5 7 29.94 1014 10 16 0.00 0.00
8:53 am 08:53 Mostly Cloudy 61 16.1 32 0 34 34 NNW 3 6 29.93 1014 10 16 0.00 0.00
9:53 am 09:53 Mostly Cloudy 63 17.2 30 -1.1 29 29 W 6 9 29.92 1013 10 16 0.00 0.00
10:53 am 10:53 Partly Cloudy 66 18.9 31 -0.6 27 27 W 5 7 29.91 1013 10 16 0.00 0.00
11:53 am 11:53 Partly Cloudy 70 21.1 32 0 25 25 Calm 29.89 1012 10 16 0.00 0.00
12:53 pm 12:53 Partly Cloudy 71 21.7 31 -0.6 23 23 Calm 29.88 1012 10 16 0.00 0.00
1:53 pm 13:53 Partly Cloudy 71 21.7 30 -1.1 22 22 Calm 29.86 1011 10 16 0.00 0.00
2:53 pm 14:53 Partly Cloudy 73 22.8 31 -0.6 21 21 VRB 7 11 29.86 1011 10 16 0.00 0.00
3:53 pm 15:53 Sunny 73 22.8 31 -0.6 21 21 ESE 12 19 29.85 1011 10 16 0.00 0.00
4:53 pm 16:53 Sunny 72 22.2 29 -1.7 20 20 VRB 5 7 29.85 1011 10 16 0.00 0.00
5:53 pm 17:53 Mostly Sunny 71 21.7 31 -0.6 23 23 SE 8 13 29.84 1011 10 16 0.00 0.00
6:53 pm 18:53 Partly Cloudy 70 21.1 31 -0.6 23 23 SE 9 15 29.83 1010 10 16 0.00 0.00
7:53 pm 19:53 Partly Cloudy 69 20.6 30 -1.1 23 23 ESE 10 17 29.83 1010 10 16 0.00 0.00
8:53 pm 20:53 Mostly Clear 66 18.9 32 0 28 28 ESE 9 15 29.83 1010 10 16 0.00 0.00
9:53 pm 21:53 Clear 64 17.8 32 0 30 30 ESE 8 13 29.84 1010 10 16 0.00 0.00
10:53 pm 22:53 Clear 61 16.1 34 1.1 36 36 SE 7 11 29.85 1011 10 16 0.00 0.00
11:53 pm 23:53 Clear 60 15.6 33 0.6 36 36 SE 7 11 29.86 1011 10 16 0.00 0.00

Powered by AerisWeather